x

9076027 - West Neebish, Mi (wnem4) Weather Station

12:30pm - Fri 28th Aug 2015 All times are CDT. -5 hours from GMT.

  • Wind
    9mph, 14mph gusts
  • Air Temp 72°f
  • Sea Pressure 1017.2mb
  • 9076027 - West Neebish, Mi
  • 9076027 - West Neebish, Mi

More Historic Weather Station data

Upgrade to MSW Pro to gain access to the past 30 days of data for over 8000 Wavebouys and Weather Stations around the globe.

Join Pro

Comparision Forecast

View Surf forecast
   
Fri 08/28 12:30pm 9 14 mph 1017.2mb 72f
12:24pm 9 17 mph 1017.2mb 71f
12:18pm 8 14 mph 1017.3mb 71f
12:12pm 9 13 mph 1017.4mb 71f
12:06pm 9 15 mph 1017.5mb 71f
12:00pm 9 14 mph 1017.5mb 71f
11:54am 9 17 mph 1017.6mb 70f
11:48am 7 18 mph 1017.6mb 70f
11:42am 9 15 mph 1017.7mb 70f
11:36am 9 17 mph 1017.7mb 71f
11:30am 8 15 mph 1017.7mb 70f
11:24am 8 15 mph 1017.8mb 70f
11:18am 9 15 mph 1017.9mb 70f
11:12am 7 11 mph 1017.9mb 70f
11:06am 10 16 mph 1018mb 69f
11:00am 9 13 mph 1017.9mb 69f
10:54am 8 15 mph 1018mb 69f
10:48am 9 15 mph 1018.1mb 69f
10:42am 9 14 mph 1018.1mb 68f
10:36am 9 14 mph 1018.1mb 68f
10:30am 8 11 mph 1018.1mb 68f
10:24am 9 14 mph 1018.2mb 67f
10:18am 7 15 mph 1018.2mb 67f
10:12am 8 14 mph 1018.2mb 67f
10:06am 7 15 mph 1018.3mb 67f
10:00am 6 16 mph 1018.2mb 67f
9:54am 10 14 mph 1018.3mb 66f
9:48am 7 13 mph 1018.3mb 66f
9:42am 9 15 mph 1018.3mb 65f
9:36am 10 14 mph 1018.4mb 65f
9:30am 8 15 mph 1018.3mb 65f
9:24am 8 14 mph 1018.3mb 65f
9:18am 7 9 mph 1018.2mb 65f
9:12am 7 11 mph 1018.2mb 65f
9:06am 3 8 mph 1018.1mb 65f
9:00am 2 5 mph 1018.1mb 64f
8:54am 3 6 mph 1018.1mb 63f
8:48am 3 7 mph 1018.1mb 63f
8:42am 5 6 mph 1018mb 62f
8:36am 3 5 mph 1018mb 62f
8:30am 2 6 mph 1018.1mb 61f
8:24am 3 6 mph 1018mb 61f
8:18am 3 6 mph 1017.9mb 61f
8:12am 5 7 mph 1017.9mb 60f
8:06am 5 7 mph 1018mb 60f
8:00am 3 6 mph 1018mb 60f
7:54am 5 7 mph 1018.1mb 60f
7:48am 3 6 mph 1018mb 59f
7:42am 6 7 mph 1018.1mb 59f
7:36am 3 7 mph 1018.1mb 59f
7:30am 5 6 mph 1018.1mb 59f
7:24am 3 6 mph 1018.1mb 59f
7:18am 5 6 mph 1018mb 59f
7:12am 6 7 mph 1018mb 59f
7:06am 6 7 mph 1018mb 58f
7:00am 5 6 mph 1017.9mb 58f
6:54am 5 7 mph 1017.9mb 58f
6:48am 5 7 mph 1017.9mb 58f
6:42am 5 7 mph 1017.9mb 58f
6:36am 5 8 mph 1017.9mb 58f
6:30am 5 6 mph 1017.9mb 58f
6:24am 5 6 mph 1018mb 58f
6:18am 3 6 mph 1018mb 57f
6:12am 5 6 mph 1017.9mb 57f
6:06am 5 7 mph 1018mb 56f
6:00am 3 5 mph 1017.9mb 56f
5:54am 3 5 mph 1018mb 55f
5:48am 2 5 mph 1017.9mb 55f
5:42am 3 5 mph 1017.9mb 54f
5:36am 2 5 mph 1017.9mb 55f
5:30am 3
mph
1017.9mb 54f
5:24am 2 3 mph 1017.9mb 54f
5:18am 2 3 mph 1017.9mb 54f
5:12am 2 3 mph 1017.9mb 54f
5:06am 2
mph
1018mb 53f
5:00am 1
mph
1018mb 53f
4:54am  -  2 mph 1018mb 53f
4:48am 1 2 mph 1018.1mb 53f
4:42am  -  2 mph 1018mb 53f
4:36am 1 2 mph 1018mb 52f
4:30am 1 2 mph 1018mb 52f
4:24am 1 2 mph 1018mb 52f
4:18am 2
mph
1017.9mb 51f
4:12am  -  2 mph 1017.9mb 51f
4:06am 1 2 mph 1017.8mb 51f
4:00am 1 2 mph 1017.8mb 51f
3:54am  -  1 mph 1017.7mb 51f
3:48am  -  mph 1017.7mb 50f
3:42am  -  mph 1017.7mb 50f
3:36am  -  mph 1017.7mb 51f
3:30am  -  mph 1017.6mb 51f
3:24am  -  mph 1017.5mb 51f
3:18am  -  mph 1017.5mb 51f
3:12am  -  mph 1017.5mb 51f
3:06am  -  mph 1017.4mb 50f
3:00am  -  mph 1017.4mb 51f
2:54am  -  1 mph 1017.4mb 51f
2:48am  -  1 mph 1017.4mb 51f
2:42am  -  1 mph 1017.4mb 51f
2:36am 1 2 mph 1017.3mb 52f
2:30am  -  1 mph 1017.3mb 52f
2:24am 1 2 mph 1017.3mb 52f
2:18am  -  mph - 52f
2:12am  -  mph - 51f
2:06am  -  mph - 51f
2:00am  -  mph 1017.4mb 51f
1:54am  -  mph 1017.4mb 52f
1:48am  -  mph 1017.4mb 52f
1:42am  -  1 mph 1017.4mb 51f
1:36am  -  2 mph 1017.5mb 53f
1:30am 2
mph
1017.6mb 54f
1:24am  -  2 mph 1017.7mb 54f
1:18am 1 2 mph 1017.7mb 54f
1:12am 1 2 mph 1017.7mb 54f
1:06am 1 2 mph 1017.7mb 54f
1:00am  -  1 mph 1017.8mb 54f
12:54am  -  2 mph 1017.9mb 54f
12:48am 1 2 mph 1017.9mb 53f
12:42am 1 2 mph 1017.9mb 53f
12:36am  -  mph 1018mb 52f
12:30am  -  1 mph 1018.1mb 53f
12:24am  -  1 mph 1018.2mb 53f
12:18am  -  1 mph 1018.2mb 53f
12:12am  -  1 mph 1018.3mb 54f
12:06am  -  1 mph 1018.3mb 54f
12:00am  -  2 mph 1018.3mb 54f
Thu 08/27 11:54pm 1 3 mph 1018.3mb 54f
11:48pm 2 5 mph 1018.3mb 55f
11:42pm 3 6 mph 1018.3mb 56f
11:36pm 3 6 mph 1018.3mb 56f
11:30pm 5 7 mph 1018.2mb 55f
11:24pm 3 6 mph 1018.2mb 55f
11:18pm 2 6 mph 1018.3mb 55f
11:12pm 3 6 mph 1018.4mb 55f
11:06pm 3 6 mph 1018.3mb 55f
11:00pm 5 6 mph 1018.3mb 55f
10:54pm 5 6 mph 1018.4mb 55f
10:48pm 3 7 mph 1018.6mb 55f
10:42pm 3 6 mph 1018.6mb 55f
10:36pm 3 5 mph 1018.6mb 55f
10:30pm 2 5 mph 1018.7mb 55f
10:24pm 2 3 mph 1018.7mb 55f
10:18pm 2 3 mph 1018.6mb 55f
10:12pm 1 2 mph 1018.6mb 55f
10:06pm 1 3 mph 1018.6mb 55f
10:00pm 2 5 mph 1018.6mb 55f
9:54pm 2 6 mph 1018.5mb 55f
9:48pm 3 6 mph 1018.5mb 55f
9:42pm 2 5 mph 1018.6mb 55f
9:36pm 2 3 mph 1018.7mb 55f
9:30pm 2 3 mph 1018.7mb 55f
9:24pm 2 3 mph 1018.8mb 55f
9:18pm 3 5 mph 1018.8mb 55f
9:12pm 2 3 mph 1018.9mb 56f
9:06pm 3 5 mph 1018.8mb 56f
9:00pm 5 6 mph 1018.7mb 56f
8:54pm 3 5 mph 1018.7mb 56f
8:48pm 3 6 mph 1018.7mb 57f
8:42pm 5 7 mph 1018.7mb 57f
8:36pm 5 7 mph 1018.8mb 57f
8:30pm 3 7 mph 1018.7mb 58f
8:24pm 6 8 mph 1018.7mb 58f
8:18pm 5 7 mph 1018.7mb 58f
8:12pm 6 7 mph 1018.7mb 58f
8:06pm 6 7 mph 1018.7mb 58f
8:00pm 5 6 mph 1018.6mb 58f
7:54pm 5 7 mph 1018.5mb 59f
7:48pm 6 8 mph 1018.4mb 59f
7:42pm 6 7 mph 1018.4mb 59f
7:36pm 5 7 mph 1018.3mb 59f
7:30pm 5 7 mph 1018.2mb 60f
7:24pm 5 8 mph 1018.2mb 60f
7:18pm 5 6 mph 1018.3mb 60f
7:12pm 5 7 mph 1018.3mb 60f
7:06pm 5 7 mph 1018.3mb 61f
7:00pm 6 7 mph 1018.4mb 61f
6:54pm 6 7 mph 1018.4mb 62f
6:48pm 5 7 mph 1018.4mb 62f
6:42pm 5 8 mph 1018.3mb 63f
6:36pm 6 8 mph 1018.3mb 63f
6:30pm 6 9 mph 1018.3mb 64f
6:24pm 7 9 mph 1018.3mb 64f
6:18pm 7 9 mph 1018.4mb 64f
6:12pm 8 11 mph 1018.4mb 64f
6:06pm 7 9 mph 1018.4mb 65f
6:00pm 7 10 mph 1018.4mb 65f
5:54pm 6 8 mph 1018.5mb 65f
5:48pm 6 9 mph 1018.5mb 65f
5:42pm 3 9 mph 1018.5mb 66f
5:36pm 7 9 mph 1018.5mb 65f
5:30pm 6 9 mph 1018.4mb 65f
5:24pm 8 11 mph 1018.5mb 64f
5:18pm 7 11 mph 1018.4mb 65f
5:12pm 9 11 mph 1018.3mb 65f
5:06pm 8 13 mph 1018.3mb 65f
5:00pm 9 13 mph 1018.2mb 65f
4:54pm 8 13 mph 1018.2mb 65f
4:48pm 10 14 mph 1018.3mb 65f
4:42pm 11 14 mph 1018.2mb 66f
4:36pm 8 14 mph 1018.3mb 66f
4:30pm 3 9 mph 1018.3mb 67f
4:24pm 8 10 mph 1018.4mb 66f
4:18pm 6 8 mph 1018.4mb 67f
4:12pm 3 9 mph 1018.5mb 67f
4:06pm 5 7 mph 1018.3mb 67f
4:00pm 3 7 mph 1018.5mb 67f
3:54pm 3 9 mph 1018.4mb 66f
3:48pm 6 9 mph 1018.2mb 66f
3:42pm 3 8 mph 1018.2mb 66f
3:36pm 3 8 mph 1018.2mb 67f
3:30pm 5 7 mph 1018.3mb 65f
3:24pm 6 9 mph 1018.3mb 66f
3:18pm 1 8 mph - -
3:12pm  -  mph 1018.4mb 64f
3:06pm 5 9 mph 1018.5mb 65f
3:00pm 6 9 mph - -
2:54pm 5 9 mph - -
2:48pm  -  mph - 64f
2:42pm  -  mph - 64f
2:36pm  -  mph - 64f
2:30pm 5 9 mph 1018.9mb 64f
2:24pm  -  2 mph 1019mb 63f
2:18pm  -  mph 1019.1mb 63f
2:12pm  -  mph 1019.2mb 64f